Waskish, MN

2:59 PM CST on February 26, 2017 (GMT -0600)
Waskish Municipal

Weather History for KVWU - April, 2013

Change the Weather History Date:

Wednesday, April 3, 2013

  Actual Average (KBDE) Record (KBDE)
Temperature  
Mean Temperature 24 °F -  
Max Temperature 44 °F 44 °F 72 °F (1991)
Min Temperature 3 °F 22 °F -14 °F (1954)
Degree Days  
Heating Degree Days 42    
Moisture  
Dew Point 13 °F    
Average Humidity 59    
Maximum Humidity 87    
Minimum Humidity 35    
Precipitation  
Precipitation 0.00 in - - ()
Sea Level Pressure  
Sea Level Pressure 30.11 in    
Wind  
Wind Speed 6 mph (South)    
Max Wind Speed 18 mph    
Max Gust Speed 26 mph    
Visibility 10 miles    
Events      
Averages and records for this station are not official NWS values.
T = Trace of Precipitation, MM = Missing Value Source: NWS Daily Summary

Daily Weather History Graph

Daily Weather History Graph

Search for Another Location

Airport or City:

Trip Planner

Search our weather history database for the weather conditions in past years. The results will help you decide how hot, cold, wet, or windy it might be!

Date:

Astronomy

Apr. 03, 2013 Rise Set
Actual Time 6:51 AM CDT 7:51 PM CDT
Civil Twilight 6:19 AM CDT 8:23 PM CDT
Nautical Twilight 5:42 AM CDT 9:01 PM CDT
Astronomical Twilight 5:01 AM CDT 9:42 PM CDT
Moon 3:02 AM CDT (4/3) 12:36 PM CDT (4/3)
Length of Visible Light 14h 03m
Length of Day
13h 00m
Last Quarter, 44% of the Moon is Illuminated
Apr 3
Last Quarter
Apr 10
New
Apr 18
First Quarter
Apr 25
Full
May 2
Last Quarter

Hourly Weather History & Observations

Time (CDT) Temp. Windchill Dew Point Humidity Pressure Visibility Wind Dir Wind Speed Gust Speed Precip Events Conditions
12:08 AM 8.6 °F - 3.2 °F 79% 30.32 in 10.0 mi Calm Calm - N/A   Clear
12:28 AM 6.8 °F - 3.2 °F 85% 30.32 in 10.0 mi Calm Calm - N/A   Clear
12:48 AM 6.8 °F - 3.2 °F 85% 30.32 in 10.0 mi Calm Calm - N/A   Clear
1:08 AM 6.8 °F - 1.4 °F 79% 30.31 in 10.0 mi Calm Calm - N/A   Clear
1:28 AM 6.8 °F - 1.4 °F 79% 30.31 in 10.0 mi Calm Calm - N/A   Clear
1:48 AM 5.0 °F - 1.4 °F 85% 30.31 in 10.0 mi Calm Calm - N/A   Clear
2:08 AM 3.2 °F - -0.4 °F 85% 30.31 in 10.0 mi Calm Calm - N/A   Clear
2:28 AM 3.2 °F -4.2 °F -0.4 °F 85% 30.30 in 10.0 mi ESE 3.5 mph - N/A   Clear
2:48 AM 3.2 °F - -0.4 °F 85% 30.29 in 10.0 mi Calm Calm - N/A   Clear
3:08 AM 3.2 °F - -0.4 °F 85% 30.29 in 10.0 mi Calm Calm - N/A   Clear
3:28 AM 3.2 °F -4.2 °F -0.4 °F 85% 30.28 in 10.0 mi ESE 3.5 mph - N/A   Clear
3:48 AM 3.2 °F -6.2 °F -0.4 °F 85% 30.28 in 10.0 mi SE 4.6 mph - N/A   Clear
4:03 AM 3.2 °F -6.2 °F -0.4 °F 85% 30.28 in 10.0 mi SE 4.6 mph - N/A   Clear
4:28 AM 5.0 °F -2.1 °F -2.2 °F 72% 30.28 in 10.0 mi SE 3.5 mph - N/A   Clear
4:48 AM 3.2 °F - -2.2 °F 78% 30.28 in 10.0 mi Calm Calm - N/A   Clear
5:08 AM 3.2 °F -6.2 °F -2.2 °F 78% 30.27 in 10.0 mi SE 4.6 mph - N/A   Clear
5:28 AM 6.8 °F -3.5 °F 1.4 °F 79% 30.27 in 10.0 mi SE 5.8 mph - N/A   Clear
5:48 AM 6.8 °F -2.0 °F -0.4 °F 72% 30.26 in 10.0 mi SE 4.6 mph - N/A   Clear
6:08 AM 10.4 °F 0.8 °F 1.4 °F 67% 30.26 in 10.0 mi SE 5.8 mph - N/A   Clear
6:28 AM 12.2 °F 2.9 °F -0.4 °F 57% 30.26 in 10.0 mi SE 5.8 mph - N/A   Clear
6:48 AM 12.2 °F 2.9 °F -0.4 °F 57% 30.26 in 10.0 mi SE 5.8 mph - N/A   Clear
7:08 AM 15.8 °F 7.2 °F 1.4 °F 53% 30.26 in 10.0 mi SSE 5.8 mph - N/A   Clear
7:28 AM 17.6 °F 8.2 °F 1.4 °F 49% 30.25 in 10.0 mi SSE 6.9 mph - N/A   Clear
7:48 AM 19.4 °F 10.4 °F 3.2 °F 49% 30.25 in 10.0 mi SSE 6.9 mph - N/A   Clear
8:08 AM 23.0 °F 14.7 °F 3.2 °F 43% 30.24 in 10.0 mi SSE 6.9 mph - N/A   Clear
8:28 AM 24.8 °F 15.3 °F 3.2 °F 40% 30.23 in 10.0 mi SSE 9.2 mph - N/A   Clear
8:48 AM 26.6 °F 16.8 °F 3.2 °F 37% 30.22 in 10.0 mi SSE 10.4 mph 16.1 mph N/A   Clear
9:08 AM 28.4 °F 19.1 °F 5.0 °F 37% 30.22 in 10.0 mi SSE 10.4 mph 17.3 mph N/A   Clear
9:28 AM 30.2 °F 20.2 °F 6.8 °F 37% 30.21 in 10.0 mi SSE 12.7 mph 18.4 mph N/A   Clear
9:48 AM 30.2 °F 24.3 °F 6.8 °F 37% 30.21 in 10.0 mi South 5.8 mph 17.3 mph N/A   Clear
10:08 AM 33.8 °F 24.8 °F 8.6 °F 35% 30.19 in 10.0 mi SSE 12.7 mph 17.3 mph N/A   Scattered Clouds
10:28 AM 33.8 °F 26.4 °F 10.4 °F 38% 30.18 in 10.0 mi South 9.2 mph 20.7 mph N/A   Clear
10:48 AM 35.6 °F 26.6 °F 10.4 °F 35% 30.18 in 10.0 mi South 13.8 mph 21.9 mph N/A   Clear
11:08 AM 35.6 °F 28.6 °F 10.4 °F 35% 30.17 in 10.0 mi South 9.2 mph 18.4 mph N/A   Scattered Clouds
11:28 AM 37.4 °F 28.9 °F 12.2 °F 36% 30.16 in 10.0 mi SSE 13.8 mph 21.9 mph N/A   Mostly Cloudy
11:48 AM 37.4 °F 29.3 °F 12.2 °F 36% 30.15 in 10.0 mi South 12.7 mph 25.3 mph N/A   Scattered Clouds
12:08 PM 37.4 °F 29.3 °F 14.0 °F 38% 30.13 in 10.0 mi SSE 12.7 mph 23.0 mph N/A   Clear
12:28 PM 39.2 °F 32.5 °F 15.8 °F 39% 30.12 in 10.0 mi SSE 10.4 mph 18.4 mph N/A   Clear
12:48 PM 39.2 °F 31.6 °F 15.8 °F 39% 30.10 in 10.0 mi South 12.7 mph 21.9 mph N/A   Clear
1:08 PM 39.2 °F 32.0 °F 15.8 °F 39% 30.09 in 10.0 mi SSE 11.5 mph 21.9 mph N/A   Clear
1:28 PM 39.2 °F 31.6 °F 17.6 °F 42% 30.06 in 10.0 mi SSE 12.7 mph 20.7 mph N/A   Clear
1:48 PM 42.8 °F 36.2 °F 17.6 °F 36% 30.04 in 10.0 mi SE 12.7 mph 18.4 mph N/A   Scattered Clouds
2:08 PM 41.0 °F 34.7 °F 17.6 °F 39% 30.03 in 10.0 mi SSE 10.4 mph 19.6 mph N/A   Scattered Clouds
2:28 PM 42.8 °F 36.6 °F 17.6 °F 36% 30.02 in 10.0 mi SSE 11.5 mph 19.6 mph N/A   Clear
2:48 PM 44.6 °F 38.4 °F 19.4 °F 37% 30.01 in 10.0 mi SSE 12.7 mph 19.6 mph N/A   Clear
3:08 PM 42.8 °F 35.8 °F 19.4 °F 39% 30.00 in 10.0 mi SSE 13.8 mph 21.9 mph N/A   Clear
3:28 PM 44.6 °F 38.1 °F 19.4 °F 37% 29.98 in 10.0 mi South 13.8 mph 23.0 mph N/A   Scattered Clouds
3:48 PM 44.6 °F 39.2 °F 19.4 °F 37% 29.97 in 10.0 mi South 10.4 mph 25.3 mph N/A   Clear
4:08 PM 42.8 °F 36.2 °F 21.2 °F 42% 29.96 in 10.0 mi SSE 12.7 mph 20.7 mph N/A   Scattered Clouds
4:27 PM 44.6 °F 37.4 °F 21.2 °F 39% 29.94 in 10.0 mi SSE 16.1 mph 24.2 mph N/A   Scattered Clouds
4:48 PM 44.6 °F 36.9 °F 21.2 °F 39% 29.92 in 10.0 mi SSE 18.4 mph 24.2 mph N/A   Scattered Clouds
5:08 PM 44.6 °F 36.9 °F 21.2 °F 39% 29.91 in 10.0 mi South 18.4 mph 25.3 mph N/A   Scattered Clouds
5:27 PM 42.8 °F 35.4 °F 23.0 °F 46% 29.91 in 10.0 mi South 15.0 mph 26.5 mph N/A   Scattered Clouds
5:48 PM 42.8 °F 35.8 °F 24.8 °F 49% 29.90 in 10.0 mi South 13.8 mph 25.3 mph N/A   Mostly Cloudy
6:08 PM 42.8 °F 35.1 °F 24.8 °F 49% 29.92 in 10.0 mi South 16.1 mph 23.0 mph N/A   Scattered Clouds
6:28 PM 42.8 °F 35.1 °F 26.6 °F 53% 29.93 in 10.0 mi SSW 16.1 mph 24.2 mph N/A   Scattered Clouds
6:48 PM 41.0 °F 34.3 °F 26.6 °F 57% 29.93 in 10.0 mi South 11.5 mph 24.2 mph N/A   Mostly Cloudy
7:08 PM 39.2 °F 32.5 °F 28.4 °F 65% 29.94 in 10.0 mi SSW 10.4 mph 17.3 mph N/A   Overcast
7:28 PM 39.2 °F 33.6 °F 28.4 °F 65% 29.93 in 10.0 mi SSW 8.1 mph - N/A   Overcast
7:48 PM 39.2 °F 35.0 °F 28.4 °F 65% 29.92 in 10.0 mi SSW 5.8 mph - N/A   Overcast
8:08 PM 39.2 °F 37.0 °F 28.4 °F 65% 29.90 in 10.0 mi South 3.5 mph - N/A   Mostly Cloudy
8:28 PM 39.2 °F 34.2 °F 30.2 °F 70% 29.90 in 10.0 mi SSW 6.9 mph - N/A   Overcast
8:48 PM 39.2 °F 34.2 °F 30.2 °F 70% 29.90 in 10.0 mi SSW 6.9 mph - N/A   Overcast
9:08 PM 39.2 °F 35.0 °F 30.2 °F 70% 29.91 in 10.0 mi SSW 5.8 mph - N/A   Overcast
9:28 PM 39.2 °F 35.0 °F 30.2 °F 70% 29.92 in 10.0 mi SSW 5.8 mph - N/A   Mostly Cloudy
9:48 PM 37.4 °F 32.8 °F 30.2 °F 75% 29.93 in 10.0 mi WSW 5.8 mph - N/A   Mostly Cloudy
10:08 PM 35.6 °F 30.7 °F 30.2 °F 81% 29.93 in 10.0 mi WSW 5.8 mph - N/A   Mostly Cloudy
10:28 PM 35.6 °F 29.9 °F 30.2 °F 81% 29.93 in 10.0 mi WSW 6.9 mph - N/A   Overcast
10:48 PM 35.6 °F 29.9 °F 30.2 °F 81% 29.93 in 10.0 mi SW 6.9 mph - N/A   Scattered Clouds
11:08 PM 33.8 °F 28.6 °F 30.2 °F 87% 29.93 in 10.0 mi WSW 5.8 mph - N/A   Clear
11:28 PM 33.8 °F 30.8 °F 30.2 °F 87% 29.93 in 10.0 mi WSW 3.5 mph - N/A   Clear
11:48 PM 33.8 °F 29.6 °F 30.2 °F 87% 29.93 in 10.0 mi WSW 4.6 mph - N/A   Clear